Tabellarische Ansicht des 27.11.2021


Die einzelnen Werte des Tages

Uhrzeit Temperatur Luftdruck Luftfeuchte Wind Hi-Wind Taupunkt THW Index Wind Chill Heat Index Solar- strahlung Regen

00:00

3.4 C

982.7 hpa

87 %

16.1 km/h aus 117

37.0 km/h aus SSE

1.4 C

-0.5 C

-0.4 C

3.3 C

0 W/m

0.00 mm

00:05

3.3 C

982.7 hpa

88 %

12.9 km/h aus 114

24.1 km/h aus SSE

1.5 C

0.1 C

0.1 C

3.3 C

0 W/m

0.00 mm

00:10

3.3 C

982.7 hpa

88 %

11.3 km/h aus 117

22.5 km/h aus ESE

1.5 C

0.3 C

0.3 C

3.2 C

0 W/m

0.00 mm

00:15

3.2 C

982.7 hpa

88 %

11.3 km/h aus 113

25.7 km/h aus ESE

1.4 C

0.2 C

0.2 C

3.1 C

0 W/m

0.25 mm

00:20

3.2 C

982.7 hpa

89 %

9.7 km/h aus 116

20.9 km/h aus SSE

1.5 C

0.5 C

0.6 C

3.1 C

0 W/m

0.00 mm

00:25

3.1 C

982.7 hpa

89 %

12.9 km/h aus 116

24.1 km/h aus SE

1.5 C

-0.2 C

-0.2 C

3.1 C

0 W/m

0.00 mm

00:30

3.1 C

982.6 hpa

89 %

11.3 km/h aus 117

25.7 km/h aus SSE

1.4 C

0.0 C

0.1 C

3.0 C

0 W/m

0.25 mm

00:35

3.0 C

982.6 hpa

89 %

9.7 km/h aus 116

20.9 km/h aus ESE

1.4 C

0.3 C

0.4 C

2.9 C

0 W/m

0.00 mm

00:40

3.0 C

982.6 hpa

90 %

9.7 km/h aus 117

20.9 km/h aus SE

1.5 C

0.3 C

0.4 C

2.9 C

0 W/m

0.00 mm

00:45

2.9 C

982.4 hpa

90 %

11.3 km/h aus 116

27.4 km/h aus ESE

1.5 C

-0.1 C

-0.1 C

2.9 C

0 W/m

0.25 mm

00:50

2.9 C

982.4 hpa

90 %

9.7 km/h aus 114

17.7 km/h aus ESE

1.5 C

0.2 C

0.3 C

2.9 C

0 W/m

0.00 mm

00:55

2.8 C

982.4 hpa

90 %

11.3 km/h aus 116

24.1 km/h aus SE

1.4 C

-0.3 C

-0.2 C

2.8 C

0 W/m

0.25 mm

01:00

2.8 C

982.2 hpa

90 %

11.3 km/h aus 116

20.9 km/h aus SSE

1.3 C

-0.3 C

-0.3 C

2.7 C

0 W/m

0.00 mm

01:05

2.7 C

982.2 hpa

90 %

9.7 km/h aus 117

20.9 km/h aus ESE

1.2 C

0.0 C

0.1 C

2.7 C

0 W/m

0.00 mm

01:10

2.7 C

982.2 hpa

91 %

11.3 km/h aus 117

25.7 km/h aus SE

1.4 C

-0.4 C

-0.3 C

2.7 C

0 W/m

0.00 mm

01:15

2.7 C

982.2 hpa

91 %

11.3 km/h aus 118

22.5 km/h aus SE

1.3 C

-0.4 C

-0.4 C

2.6 C

0 W/m

0.00 mm

01:20

2.7 C

982.2 hpa

91 %

14.5 km/h aus 114

22.5 km/h aus SE

1.3 C

-1.1 C

-1.0 C

2.6 C

0 W/m

0.00 mm

01:25

2.7 C

982.2 hpa

91 %

11.3 km/h aus 113

19.3 km/h aus SSE

1.3 C

-0.4 C

-0.4 C

2.6 C

0 W/m

0.00 mm

01:30

2.6 C

982.1 hpa

91 %

12.9 km/h aus 116

27.4 km/h aus SE

1.3 C

-0.8 C

-0.8 C

2.6 C

0 W/m

0.00 mm

01:35

2.6 C

982.1 hpa

91 %

12.9 km/h aus 117

22.5 km/h aus SSE

1.3 C

-0.8 C

-0.8 C

2.6 C

0 W/m

0.00 mm

01:40

2.6 C

982.1 hpa

91 %

14.5 km/h aus 116

27.4 km/h aus ESE

1.3 C

-1.2 C

-1.1 C

2.6 C

0 W/m

0.00 mm

01:45

2.7 C

981.8 hpa

91 %

16.1 km/h aus 117

25.7 km/h aus SSE

1.3 C

-1.3 C

-1.3 C

2.6 C

0 W/m

0.00 mm

01:50

2.7 C

981.8 hpa

91 %

14.5 km/h aus 115

24.1 km/h aus SSE

1.3 C

-1.1 C

-1.0 C

2.6 C

0 W/m

0.00 mm

01:55

2.6 C

981.8 hpa

92 %

17.7 km/h aus 116

30.6 km/h aus SSE

1.4 C

-1.7 C

-1.6 C

2.6 C

0 W/m

0.00 mm

02:00

2.7 C

981.8 hpa

92 %

19.3 km/h aus 114

29.0 km/h aus SSE

1.5 C

-1.8 C

-1.8 C

2.6 C

0 W/m

0.00 mm

02:05

2.7 C

981.8 hpa

91 %

12.9 km/h aus 115

27.4 km/h aus SSE

1.3 C

-0.8 C

-0.7 C

2.6 C

0 W/m

0.00 mm

02:10

2.7 C

981.8 hpa

92 %

14.5 km/h aus 116

24.1 km/h aus SSE

1.5 C

-1.1 C

-1.0 C

2.6 C

0 W/m

0.00 mm

02:15

2.7 C

981.8 hpa

92 %

16.1 km/h aus 117

24.1 km/h aus SSE

1.5 C

-1.3 C

-1.3 C

2.6 C

0 W/m

0.00 mm

02:20

2.7 C

981.8 hpa

92 %

14.5 km/h aus 118

25.7 km/h aus SSE

1.5 C

-1.1 C

-1.0 C

2.6 C

0 W/m

0.00 mm

02:25

2.7 C

981.8 hpa

92 %

14.5 km/h aus 117

22.5 km/h aus SSE

1.6 C

-1.0 C

-0.9 C

2.7 C

0 W/m

0.00 mm

02:30

2.7 C

981.7 hpa

92 %

11.3 km/h aus 115

20.9 km/h aus SSE

1.6 C

-0.4 C

-0.3 C

2.7 C

0 W/m

0.00 mm

02:35

2.7 C

981.7 hpa

92 %

12.9 km/h aus 113

24.1 km/h aus SE

1.6 C

-0.7 C

-0.7 C

2.7 C

0 W/m

0.00 mm

02:40

2.7 C

981.7 hpa

92 %

11.3 km/h aus 117

25.7 km/h aus SSE

1.5 C

-0.4 C

-0.4 C

2.6 C

0 W/m

0.00 mm

02:45

2.6 C

981.6 hpa

92 %

16.1 km/h aus 117

25.7 km/h aus SSE

1.4 C

-1.4 C

-1.3 C

2.6 C

0 W/m

0.00 mm

02:50

2.6 C

981.6 hpa

92 %

16.1 km/h aus 117

29.0 km/h aus SSE

1.4 C

-1.4 C

-1.3 C

2.6 C

0 W/m

0.00 mm

02:55

2.6 C

981.6 hpa

92 %

16.1 km/h aus 117

24.1 km/h aus SSE

1.4 C

-1.4 C

-1.3 C

2.6 C

0 W/m

0.00 mm

03:00

2.6 C

981.7 hpa

92 %

12.9 km/h aus 117

20.9 km/h aus SSE

1.4 C

-0.8 C

-0.8 C

2.6 C

0 W/m

0.00 mm

03:05

2.6 C

981.7 hpa

91 %

12.9 km/h aus 115

22.5 km/h aus S

1.3 C

-0.8 C

-0.8 C

2.6 C

0 W/m

0.00 mm

03:10

2.6 C

981.7 hpa

91 %

12.9 km/h aus 114

19.3 km/h aus SSE

1.3 C

-0.8 C

-0.8 C

2.6 C

0 W/m

0.00 mm

03:15

2.6 C

981.7 hpa

91 %

12.9 km/h aus 116

25.7 km/h aus SSE

1.3 C

-0.8 C

-0.8 C

2.6 C

0 W/m

0.00 mm

03:20

2.7 C

981.7 hpa

91 %

9.7 km/h aus 115

25.7 km/h aus SSE

1.3 C

-0.1 C

-0.1 C

2.6 C

0 W/m

0.00 mm

03:25

2.7 C

981.7 hpa

91 %

14.5 km/h aus 118

25.7 km/h aus SSE

1.3 C

-1.1 C

-1.0 C

2.6 C

0 W/m

0.00 mm

03:30

2.7 C

981.7 hpa

91 %

16.1 km/h aus 116

29.0 km/h aus SE

1.4 C

-1.3 C

-1.2 C

2.7 C

0 W/m

0.00 mm

03:35

2.8 C

981.7 hpa

91 %

12.9 km/h aus 117

27.4 km/h aus SSE

1.5 C

-0.7 C

-0.6 C

2.7 C

0 W/m

0.00 mm

03:40

2.8 C

981.7 hpa

91 %

14.5 km/h aus 115

25.7 km/h aus SE

1.5 C

-0.9 C

-0.8 C

2.8 C

0 W/m

0.00 mm

03:45

2.8 C

981.7 hpa

91 %

12.9 km/h aus 114

24.1 km/h aus SE

1.5 C

-0.6 C

-0.5 C

2.8 C

0 W/m

0.00 mm

03:50

2.9 C

981.7 hpa

91 %

14.5 km/h aus 117

24.1 km/h aus SSE

1.6 C

-0.8 C

-0.7 C

2.8 C

0 W/m

0.00 mm

03:55

2.9 C

981.7 hpa

91 %

12.9 km/h aus 117

20.9 km/h aus SE

1.6 C

-0.4 C

-0.4 C

2.9 C

0 W/m

0.00 mm

04:00

2.9 C

981.7 hpa

91 %

11.3 km/h aus 117

22.5 km/h aus SSE

1.6 C

-0.1 C

-0.1 C

2.9 C

0 W/m

0.00 mm

04:05

3.0 C

981.7 hpa

91 %

9.7 km/h aus 117

22.5 km/h aus SE

1.7 C

0.3 C

0.4 C

2.9 C

0 W/m

0.00 mm

04:10

3.0 C

981.7 hpa

91 %

9.7 km/h aus 117

22.5 km/h aus SE

1.7 C

0.3 C

0.4 C

2.9 C

0 W/m

0.00 mm

04:15

3.1 C

981.7 hpa

91 %

11.3 km/h aus 114

22.5 km/h aus SE

1.7 C

0.0 C

0.1 C

3.0 C

0 W/m

0.00 mm

04:20

3.1 C

981.7 hpa

90 %

12.9 km/h aus 115

24.1 km/h aus SE

1.6 C

-0.3 C

-0.3 C

3.0 C

0 W/m

0.00 mm

04:25

3.1 C

981.7 hpa

90 %

14.5 km/h aus 117

22.5 km/h aus SSE

1.6 C

-0.6 C

-0.5 C

3.1 C

0 W/m

0.00 mm

04:30

3.1 C

981.7 hpa

90 %

14.5 km/h aus 117

24.1 km/h aus SE

1.6 C

-0.6 C

-0.5 C

3.1 C

0 W/m

0.00 mm

04:35

3.2 C

981.7 hpa

90 %

14.5 km/h aus 116

27.4 km/h aus SSE

1.7 C

-0.4 C

-0.4 C

3.1 C

0 W/m

0.00 mm

04:40

3.2 C

981.7 hpa

90 %

14.5 km/h aus 117

22.5 km/h aus SSE

1.7 C

-0.4 C

-0.4 C

3.1 C

0 W/m

0.00 mm

04:45

3.2 C

981.7 hpa

90 %

16.1 km/h aus 117

24.1 km/h aus SSE

1.7 C

-0.7 C

-0.6 C

3.2 C

0 W/m

0.00 mm

04:50

3.2 C

981.7 hpa

90 %

12.9 km/h aus 113

27.4 km/h aus SE

1.7 C

-0.1 C

-0.1 C

3.2 C

0 W/m

0.00 mm

04:55

3.2 C

981.7 hpa

90 %

16.1 km/h aus 114

24.1 km/h aus SSE

1.7 C

-0.7 C

-0.6 C

3.2 C

0 W/m

0.00 mm

05:00

3.2 C

981.8 hpa

89 %

14.5 km/h aus 117

22.5 km/h aus SSE

1.6 C

-0.4 C

-0.3 C

3.2 C

0 W/m

0.00 mm

05:05

3.3 C

981.8 hpa

89 %

11.3 km/h aus 117

20.9 km/h aus S

1.6 C

0.3 C

0.3 C

3.2 C

0 W/m

0.00 mm

05:10

3.3 C

981.8 hpa

89 %

9.7 km/h aus 117

17.7 km/h aus SSE

1.6 C

0.7 C

0.7 C

3.2 C

0 W/m

0.00 mm

05:15

3.3 C

982.1 hpa

89 %

9.7 km/h aus 117

19.3 km/h aus SSE

1.6 C

0.7 C

0.7 C

3.2 C

0 W/m

0.00 mm

05:20

3.3 C

982.1 hpa

89 %

9.7 km/h aus 115

20.9 km/h aus SE

1.6 C

0.7 C

0.7 C

3.2 C

0 W/m

0.00 mm

05:25

3.3 C

982.1 hpa

89 %

8.0 km/h aus 114

19.3 km/h aus ESE

1.6 C

1.1 C

1.1 C

3.2 C

0 W/m

0.00 mm

05:30

3.3 C

982.2 hpa

89 %

9.7 km/h aus 117

19.3 km/h aus SE

1.6 C

0.7 C

0.7 C

3.2 C

0 W/m

0.00 mm

05:35

3.3 C

982.2 hpa

89 %

8.0 km/h aus 117

16.1 km/h aus SSE

1.6 C

1.1 C

1.1 C

3.2 C

0 W/m

0.00 mm

05:40

3.3 C

982.2 hpa

89 %

4.8 km/h aus 117

16.1 km/h aus SSE

1.6 C

2.2 C

2.2 C

3.2 C

0 W/m

0.00 mm

05:45

3.3 C

982.3 hpa

89 %

6.4 km/h aus 117

19.3 km/h aus ESE

1.6 C

1.6 C

1.6 C

3.2 C

0 W/m

0.00 mm

05:50

3.3 C

982.3 hpa

89 %

6.4 km/h aus 117

12.9 km/h aus SE

1.6 C

1.6 C

1.6 C

3.2 C

0 W/m

0.00 mm

05:55

3.3 C

982.3 hpa

89 %

4.8 km/h aus 115

9.7 km/h aus SE

1.6 C

2.2 C

2.2 C

3.2 C

0 W/m

0.00 mm

06:00

3.3 C

982.3 hpa

89 %

4.8 km/h aus 113

9.7 km/h aus SE

1.6 C

2.2 C

2.2 C

3.2 C

0 W/m

0.00 mm

06:05

3.3 C

982.3 hpa

89 %

4.8 km/h aus 117

11.3 km/h aus SE

1.6 C

2.2 C

2.2 C

3.2 C

0 W/m

0.00 mm

06:10

3.3 C

982.3 hpa

89 %

4.8 km/h aus 116

9.7 km/h aus SE

1.6 C

2.2 C

2.2 C

3.2 C

0 W/m

0.00 mm

06:15

3.3 C

982.7 hpa

89 %

4.8 km/h aus 117

11.3 km/h aus SSE

1.6 C

2.2 C

2.2 C

3.2 C

0 W/m

0.00 mm

06:20

3.2 C

982.7 hpa

89 %

3.2 km/h aus 117

8.0 km/h aus SSE

1.6 C

2.9 C

2.9 C

3.2 C

0 W/m

0.00 mm

06:25

3.2 C

982.7 hpa

89 %

0.0 km/h aus 115

0.0 km/h aus ---

1.6 C

3.2 C

3.2 C

3.2 C

0 W/m

0.00 mm

06:30

3.2 C

982.7 hpa

89 %

0.0 km/h aus 114

0.0 km/h aus ---

1.6 C

3.2 C

3.2 C

3.2 C

0 W/m

0.00 mm

06:35

3.2 C

982.7 hpa

89 %

0.0 km/h aus 115

0.0 km/h aus ---

1.6 C

3.2 C

3.2 C

3.2 C

0 W/m

0.00 mm

06:40

3.2 C

982.7 hpa

89 %

0.0 km/h aus 117

3.2 km/h aus SE

1.6 C

3.2 C

3.2 C

3.2 C

0 W/m

0.00 mm

06:45

3.2 C

982.8 hpa

89 %

0.0 km/h aus 116

3.2 km/h aus SE

1.6 C

3.2 C

3.2 C

3.2 C

0 W/m

0.00 mm

06:50

3.2 C

982.8 hpa

89 %

1.6 km/h aus 117

6.4 km/h aus SE

1.5 C

3.1 C

3.2 C

3.1 C

0 W/m

0.00 mm

06:55

3.2 C

982.8 hpa

89 %

1.6 km/h aus 117

4.8 km/h aus SE

1.5 C

3.1 C

3.2 C

3.1 C

0 W/m

0.00 mm

07:00

3.2 C

982.8 hpa

89 %

1.6 km/h aus 116

4.8 km/h aus SE

1.5 C

3.1 C

3.2 C

3.1 C

0 W/m

0.00 mm

07:05

3.1 C

982.8 hpa

89 %

3.2 km/h aus 114

6.4 km/h aus ESE

1.5 C

2.8 C

2.8 C

3.1 C

0 W/m

0.00 mm

07:10

3.1 C

982.8 hpa

89 %

1.6 km/h aus 115

6.4 km/h aus ESE

1.5 C

3.1 C

3.1 C

3.1 C

0 W/m

0.00 mm

07:15

3.1 C

983.1 hpa

89 %

1.6 km/h aus 117

6.4 km/h aus SE

1.4 C

3.0 C

3.1 C

3.0 C

0 W/m

0.00 mm

07:20

3.1 C

983.1 hpa

89 %

3.2 km/h aus 116

8.0 km/h aus SE

1.4 C

2.7 C

2.8 C

3.0 C

0 W/m

0.00 mm

07:25

3.1 C

983.1 hpa

89 %

4.8 km/h aus 115

9.7 km/h aus SE

1.4 C

1.9 C

1.9 C

3.0 C

0 W/m

0.00 mm

07:30

3.1 C

983.3 hpa

89 %

4.8 km/h aus 117

12.9 km/h aus SE

1.4 C

1.9 C

1.9 C

3.0 C

0 W/m

0.00 mm

07:35

3.1 C

983.3 hpa

89 %

1.6 km/h aus 116

6.4 km/h aus ESE

1.4 C

3.0 C

3.1 C

3.0 C

0 W/m

0.00 mm

07:40

3.1 C

983.3 hpa

89 %

1.6 km/h aus 114

4.8 km/h aus ESE

1.4 C

3.0 C

3.1 C

3.0 C

0 W/m

0.00 mm

07:45

3.1 C

983.3 hpa

89 %

0.0 km/h aus 117

4.8 km/h aus ESE

1.4 C

3.0 C

3.1 C

3.0 C

0 W/m

0.00 mm

07:50

3.1 C

983.3 hpa

89 %

1.6 km/h aus 117

4.8 km/h aus ESE

1.4 C

3.0 C

3.1 C

3.0 C

0 W/m

0.00 mm

07:55

3.1 C

983.3 hpa

89 %

1.6 km/h aus 117

8.0 km/h aus ESE

1.4 C

3.0 C

3.1 C

3.0 C

0 W/m

0.00 mm

08:00

3.0 C

983.5 hpa

89 %

3.2 km/h aus 115

6.4 km/h aus ESE

1.4 C

2.7 C

2.7 C

2.9 C

0 W/m

0.00 mm

08:05

3.1 C

983.5 hpa

89 %

1.6 km/h aus 115

8.0 km/h aus ESE

1.4 C

3.0 C

3.1 C

3.0 C

1 W/m

0.00 mm

08:10

3.1 C

983.5 hpa

89 %

1.6 km/h aus 114

6.4 km/h aus ESE

1.4 C

3.0 C

3.1 C

3.0 C

5 W/m

0.00 mm

08:15

3.1 C

983.8 hpa

89 %

6.4 km/h aus 114

14.5 km/h aus SE

1.4 C

1.3 C

1.3 C

3.0 C

5 W/m

0.00 mm

08:20

3.1 C

983.8 hpa

89 %

6.4 km/h aus 117

11.3 km/h aus ESE

1.4 C

1.3 C

1.3 C

3.0 C

6 W/m

0.00 mm

08:25

3.1 C

983.8 hpa

89 %

6.4 km/h aus 117

12.9 km/h aus ESE

1.4 C

1.3 C

1.3 C

3.0 C

7 W/m

0.00 mm

08:30

3.1 C

983.8 hpa

90 %

4.8 km/h aus 116

9.7 km/h aus SE

1.6 C

2.0 C

2.1 C

3.1 C

9 W/m

0.00 mm

08:35

3.1 C

983.8 hpa

90 %

6.4 km/h aus 117

14.5 km/h aus SE

1.6 C

1.3 C

1.4 C

3.1 C

13 W/m

0.00 mm

08:40

3.2 C

983.8 hpa

90 %

6.4 km/h aus 117

14.5 km/h aus SE

1.7 C

1.4 C

1.5 C

3.1 C

19 W/m

0.00 mm

08:45

3.2 C

984.1 hpa

90 %

4.8 km/h aus 115

9.7 km/h aus SSE

1.7 C

2.1 C

2.2 C

3.2 C

20 W/m

0.00 mm

08:50

3.2 C

984.1 hpa

90 %

4.8 km/h aus 115

11.3 km/h aus SE

1.7 C

2.1 C

2.2 C

3.2 C

20 W/m

0.00 mm

08:55

3.2 C

984.1 hpa

90 %

4.8 km/h aus 117

11.3 km/h aus SE

1.7 C

2.1 C

2.2 C

3.2 C

19 W/m

0.00 mm

09:00

3.3 C

984.3 hpa

90 %

6.4 km/h aus 117

11.3 km/h aus SE

1.8 C

1.6 C

1.6 C

3.2 C

21 W/m

0.00 mm

09:05

3.3 C

984.3 hpa

90 %

3.2 km/h aus 116

9.7 km/h aus SE

1.8 C

3.0 C

3.1 C

3.2 C

19 W/m

0.00 mm

09:10

3.3 C

984.3 hpa

90 %

4.8 km/h aus 117

8.0 km/h aus SE

1.8 C

2.2 C

2.3 C

3.3 C

18 W/m

0.00 mm

09:15

3.3 C

984.3 hpa

90 %

4.8 km/h aus 117

8.0 km/h aus SE

1.8 C

2.2 C

2.3 C

3.3 C

18 W/m

0.00 mm

09:20

3.3 C

984.3 hpa

90 %

3.2 km/h aus 114

8.0 km/h aus SE

1.8 C

3.1 C

3.1 C

3.3 C

19 W/m

0.00 mm

09:25

3.4 C

984.3 hpa

90 %

4.8 km/h aus 115

9.7 km/h aus SE

1.9 C

2.3 C

2.3 C

3.3 C

26 W/m

0.00 mm

09:30

3.4 C

984.4 hpa

90 %

4.8 km/h aus 116

11.3 km/h aus SE

1.9 C

2.3 C

2.3 C

3.3 C

36 W/m

0.00 mm

09:35

3.4 C

984.4 hpa

90 %

3.2 km/h aus 117

8.0 km/h aus SE

2.0 C

3.2 C

3.2 C

3.4 C

38 W/m

0.00 mm

09:40

3.5 C

984.4 hpa

90 %

4.8 km/h aus 116

9.7 km/h aus SE

2.0 C

2.4 C

2.4 C

3.4 C

35 W/m

0.00 mm

09:45

3.5 C

984.7 hpa

90 %

3.2 km/h aus 116

9.7 km/h aus SE

2.0 C

3.2 C

3.3 C

3.4 C

40 W/m

0.00 mm

09:50

3.6 C

984.7 hpa

90 %

4.8 km/h aus 115

8.0 km/h aus SE

2.1 C

2.5 C

2.6 C

3.5 C

41 W/m

0.00 mm

09:55

3.6 C

984.7 hpa

90 %

4.8 km/h aus 115

9.7 km/h aus SE

2.1 C

2.5 C

2.6 C

3.5 C

48 W/m

0.00 mm

10:00

3.6 C

984.8 hpa

90 %

4.8 km/h aus 115

9.7 km/h aus SE

2.1 C

2.6 C

2.6 C

3.6 C

48 W/m

0.00 mm

10:05

3.7 C

984.8 hpa

90 %

4.8 km/h aus 117

8.0 km/h aus SE

2.2 C

2.6 C

2.7 C

3.6 C

42 W/m

0.00 mm

10:10

3.7 C

984.8 hpa

90 %

3.2 km/h aus 117

8.0 km/h aus SE

2.2 C

3.4 C

3.4 C

3.6 C

39 W/m

0.00 mm

10:15

3.7 C

984.9 hpa

90 %

1.6 km/h aus 115

6.4 km/h aus SE

2.2 C

3.7 C

3.7 C

3.7 C

36 W/m

0.00 mm

10:20

3.8 C

984.9 hpa

90 %

3.2 km/h aus 117

8.0 km/h aus SE

2.3 C

3.5 C

3.6 C

3.7 C

36 W/m

0.00 mm

10:25

3.8 C

984.9 hpa

90 %

9.7 km/h aus 115

16.1 km/h aus SSE

2.3 C

1.2 C

1.3 C

3.7 C

27 W/m

0.00 mm

10:30

3.8 C

985.1 hpa

90 %

6.4 km/h aus 112

9.7 km/h aus S

2.3 C

2.2 C

2.2 C

3.8 C

24 W/m

0.00 mm

10:35

3.8 C

985.1 hpa

90 %

6.4 km/h aus 117

14.5 km/h aus S

2.3 C

2.2 C

2.2 C

3.8 C

35 W/m

0.00 mm

10:40

3.9 C

985.1 hpa

90 %

11.3 km/h aus 115

19.3 km/h aus S

2.4 C

1.0 C

1.1 C

3.8 C

33 W/m

0.00 mm

10:45

3.9 C

985.4 hpa

90 %

9.7 km/h aus 116

20.9 km/h aus SSW

2.4 C

1.4 C

1.4 C

3.8 C

31 W/m

0.00 mm

10:50

3.8 C

985.4 hpa

89 %

17.7 km/h aus 117

30.6 km/h aus SSW

2.2 C

-0.1 C

-0.1 C

3.8 C

27 W/m

0.00 mm

10:55

3.8 C

985.4 hpa

89 %

19.3 km/h aus 116

29.0 km/h aus SSW

2.1 C

-0.4 C

-0.4 C

3.7 C

29 W/m

0.00 mm

11:00

3.7 C

985.4 hpa

88 %

16.1 km/h aus 115

24.1 km/h aus SSE

1.9 C

-0.1 C

0.0 C

3.7 C

41 W/m

0.00 mm

11:05

3.7 C

985.4 hpa

88 %

9.7 km/h aus 116

19.3 km/h aus S

1.9 C

1.2 C

1.2 C

3.7 C

90 W/m

0.00 mm

11:10

3.8 C

985.4 hpa

87 %

11.3 km/h aus 117

19.3 km/h aus S

1.9 C

0.9 C

1.0 C

3.7 C

112 W/m

0.00 mm

11:15

3.9 C

985.6 hpa

86 %

14.5 km/h aus 117

22.5 km/h aus S

1.8 C

0.4 C

0.6 C

3.8 C

145 W/m

0.00 mm

11:20

4.1 C

985.6 hpa

86 %

11.3 km/h aus 116

22.5 km/h aus S

1.9 C

1.2 C

1.3 C

3.9 C

148 W/m

0.00 mm

11:25

4.1 C

985.6 hpa

85 %

9.7 km/h aus 116

17.7 km/h aus SSW

1.8 C

1.5 C

1.6 C

3.9 C

96 W/m

0.00 mm

11:30

4.1 C

985.7 hpa

85 %

14.5 km/h aus 114

22.5 km/h aus S

1.8 C

0.7 C

0.8 C

4.0 C

65 W/m

0.00 mm

11:35

4.1 C

985.7 hpa

85 %

9.7 km/h aus 114

19.3 km/h aus S

1.8 C

1.5 C

1.6 C

3.9 C

61 W/m

0.00 mm

11:40

4.1 C

985.7 hpa

85 %

9.7 km/h aus 117

20.9 km/h aus SW

1.8 C

1.6 C

1.7 C

4.0 C

65 W/m

0.00 mm

11:45

4.1 C

985.8 hpa

85 %

9.7 km/h aus 117

24.1 km/h aus S

1.8 C

1.5 C

1.6 C

3.9 C

56 W/m

0.00 mm

11:50

4.0 C

985.8 hpa

85 %

12.9 km/h aus 117

22.5 km/h aus SSW

1.7 C

0.8 C

0.9 C

3.9 C

63 W/m

0.00 mm

11:55

4.0 C

985.8 hpa

85 %

12.9 km/h aus 117

24.1 km/h aus SSW

1.7 C

0.8 C

0.9 C

3.9 C

50 W/m

0.00 mm

12:00

4.0 C

985.9 hpa

85 %

9.7 km/h aus 114

17.7 km/h aus SSW

1.7 C

1.4 C

1.6 C

3.9 C

50 W/m

0.00 mm

12:05

4.0 C

985.9 hpa

85 %

11.3 km/h aus 115

19.3 km/h aus SSW

1.7 C

1.1 C

1.2 C

3.9 C

51 W/m

0.00 mm

12:10

4.0 C

985.9 hpa

85 %

12.9 km/h aus 117

20.9 km/h aus SSW

1.7 C

0.8 C

0.9 C

3.9 C

44 W/m

0.00 mm

12:15

4.0 C

985.9 hpa

85 %

14.5 km/h aus 116

25.7 km/h aus SSW

1.7 C

0.5 C

0.6 C

3.9 C

33 W/m

0.00 mm

12:20

3.9 C

985.9 hpa

85 %

11.3 km/h aus 117

17.7 km/h aus SSW

1.7 C

1.1 C

1.2 C

3.8 C

28 W/m

0.00 mm

12:25

3.9 C

985.9 hpa

85 %

12.9 km/h aus 116

24.1 km/h aus S

1.7 C

0.7 C

0.8 C

3.8 C

40 W/m

0.00 mm

12:30

4.0 C

986.1 hpa

85 %

9.7 km/h aus 114

17.7 km/h aus SSW

1.7 C

1.4 C

1.6 C

3.9 C

44 W/m

0.00 mm

12:35

4.0 C

986.1 hpa

85 %

12.9 km/h aus 114

19.3 km/h aus SSW

1.7 C

0.8 C

0.9 C

3.9 C

62 W/m

0.00 mm

12:40

4.0 C

986.1 hpa

85 %

11.3 km/h aus 115

19.3 km/h aus S

1.7 C

1.1 C

1.2 C

3.9 C

53 W/m

0.00 mm

12:45

4.0 C

986.3 hpa

85 %

11.3 km/h aus 117

16.1 km/h aus SSW

1.7 C

1.1 C

1.2 C

3.9 C

42 W/m

0.00 mm

12:50

4.1 C

986.3 hpa

86 %

9.7 km/h aus 116

22.5 km/h aus S

1.9 C

1.5 C

1.6 C

3.9 C

52 W/m

0.00 mm

12:55

4.1 C

986.3 hpa

86 %

12.9 km/h aus 117

17.7 km/h aus S

1.9 C

0.8 C

0.9 C

3.9 C

74 W/m

0.00 mm

13:00

4.1 C

986.3 hpa

86 %

12.9 km/h aus 117

22.5 km/h aus SSW

2.0 C

0.9 C

1.1 C

4.0 C

91 W/m

0.00 mm

13:05

4.1 C

986.3 hpa

86 %

11.3 km/h aus 115

20.9 km/h aus SSW

2.0 C

1.2 C

1.3 C

4.0 C

76 W/m

0.00 mm

13:10

4.1 C

986.3 hpa

86 %

9.7 km/h aus 115

17.7 km/h aus SSW

2.0 C

1.6 C

1.7 C

4.0 C

57 W/m

0.00 mm

13:15

4.1 C

986.4 hpa

86 %

11.3 km/h aus 116

22.5 km/h aus S

2.0 C

1.2 C

1.3 C

4.0 C

52 W/m

0.00 mm

13:20

4.2 C

986.4 hpa

86 %

9.7 km/h aus 115

17.7 km/h aus SSW

2.0 C

1.7 C

1.8 C

4.1 C

44 W/m

0.00 mm

13:25

4.2 C

986.4 hpa

86 %

3.2 km/h aus 117

14.5 km/h aus SSW

2.0 C

3.9 C

4.0 C

4.1 C

44 W/m

0.00 mm

13:30

4.2 C

986.4 hpa

86 %

6.4 km/h aus 114

17.7 km/h aus SW

2.0 C

2.5 C

2.6 C

4.1 C

35 W/m

0.00 mm

13:35

4.2 C

986.4 hpa

86 %

8.0 km/h aus 115

20.9 km/h aus SW

2.0 C

2.1 C

2.2 C

4.1 C

36 W/m

0.00 mm

13:40

4.2 C

986.4 hpa

86 %

6.4 km/h aus 113

14.5 km/h aus SSW

2.0 C

2.5 C

2.6 C

4.1 C

30 W/m

0.00 mm

13:45

4.2 C

986.5 hpa

86 %

6.4 km/h aus 116

12.9 km/h aus SSW

2.0 C

2.5 C

2.6 C

4.1 C

21 W/m

0.00 mm

13:50

4.2 C

986.5 hpa

86 %

3.2 km/h aus 117

11.3 km/h aus SSW

2.0 C

3.9 C

4.0 C

4.1 C

20 W/m

0.00 mm

13:55

4.2 C

986.5 hpa

86 %

1.6 km/h aus 116

6.4 km/h aus SW

2.0 C

4.1 C

4.2 C

4.1 C

26 W/m

0.00 mm

14:00

4.2 C

986.7 hpa

86 %

4.8 km/h aus 117

9.7 km/h aus SSW

2.0 C

3.1 C

3.2 C

4.1 C

26 W/m

0.00 mm

14:05

4.2 C

986.7 hpa

86 %

3.2 km/h aus 115

9.7 km/h aus SSW

2.0 C

3.9 C

4.0 C

4.1 C

23 W/m

0.00 mm

14:10

4.2 C

986.7 hpa

86 %

3.2 km/h aus 114

9.7 km/h aus SW

2.0 C

3.9 C

4.0 C

4.1 C

24 W/m

0.00 mm

14:15

4.2 C

986.9 hpa

86 %

3.2 km/h aus 115

9.7 km/h aus SW

2.0 C

3.9 C

4.0 C

4.1 C

24 W/m

0.00 mm

14:20

4.2 C

986.9 hpa

86 %

3.2 km/h aus 116

9.7 km/h aus SSW

2.1 C

3.9 C

4.1 C

4.1 C

36 W/m

0.00 mm

14:25

4.2 C

986.9 hpa

86 %

1.6 km/h aus 117

6.4 km/h aus SSW

2.1 C

4.1 C

4.2 C

4.1 C

40 W/m

0.00 mm

14:30

4.3 C

987.0 hpa

86 %

1.6 km/h aus 117

8.0 km/h aus SW

2.1 C

4.2 C

4.3 C

4.2 C

34 W/m

0.00 mm

14:35

4.3 C

987.0 hpa

86 %

0.0 km/h aus 116

4.8 km/h aus SW

2.1 C

4.2 C

4.3 C

4.2 C

22 W/m

0.00 mm

14:40

4.3 C

987.0 hpa

86 %

3.2 km/h aus 115

9.7 km/h aus SSW

2.1 C

4.0 C

4.1 C

4.2 C

17 W/m

0.00 mm

14:45

4.3 C

987.1 hpa

86 %

1.6 km/h aus 113

8.0 km/h aus SSW

2.1 C

4.2 C

4.3 C

4.2 C

15 W/m

0.00 mm

14:50

4.3 C

987.1 hpa

86 %

1.6 km/h aus 117

8.0 km/h aus SW

2.1 C

4.2 C

4.3 C

4.2 C

11 W/m

0.00 mm

14:55

4.3 C

987.1 hpa

86 %

1.6 km/h aus 116

6.4 km/h aus SW

2.1 C

4.2 C

4.3 C

4.2 C

10 W/m

0.00 mm

15:00

4.3 C

987.4 hpa

86 %

3.2 km/h aus 117

9.7 km/h aus SSW

2.1 C

4.0 C

4.1 C

4.2 C

9 W/m

0.00 mm

15:05

4.3 C

987.4 hpa

86 %

4.8 km/h aus 117

11.3 km/h aus SSW

2.1 C

3.2 C

3.3 C

4.2 C

8 W/m

0.00 mm

15:10

4.3 C

987.4 hpa

86 %

6.4 km/h aus 114

12.9 km/h aus SSW

2.1 C

2.7 C

2.8 C

4.2 C

7 W/m

0.00 mm

15:15

4.3 C

987.5 hpa

86 %

6.4 km/h aus 113

11.3 km/h aus SSW

2.1 C

2.7 C

2.8 C

4.2 C

6 W/m

0.00 mm

15:20

4.3 C

987.5 hpa

86 %

8.0 km/h aus 117

14.5 km/h aus SSW

2.1 C

2.2 C

2.3 C

4.2 C

5 W/m

0.00 mm

15:25

4.3 C

987.5 hpa

86 %

6.4 km/h aus 116

11.3 km/h aus SW

2.1 C

2.7 C

2.8 C

4.2 C

1 W/m

0.00 mm

15:30

4.3 C

987.5 hpa

86 %

8.0 km/h aus 116

14.5 km/h aus SW

2.1 C

2.2 C

2.3 C

4.2 C

0 W/m

0.00 mm

15:35

4.3 C

987.5 hpa

86 %

6.4 km/h aus 117

16.1 km/h aus SSW

2.1 C

2.7 C

2.8 C

4.2 C

2 W/m

0.00 mm

15:40

4.3 C

987.5 hpa

86 %

8.0 km/h aus 116

14.5 km/h aus SW

2.1 C

2.2 C

2.3 C

4.2 C

0 W/m

0.00 mm

15:45

4.3 C

987.8 hpa

86 %

8.0 km/h aus 113

11.3 km/h aus SW

2.1 C

2.2 C

2.3 C

4.2 C

3 W/m

0.00 mm

15:50

4.3 C

987.8 hpa

86 %

3.2 km/h aus 115

9.7 km/h aus SW

2.1 C

4.0 C

4.1 C

4.2 C

6 W/m

0.00 mm

15:55

4.3 C

987.8 hpa

86 %

4.8 km/h aus 117

9.7 km/h aus SW

2.1 C

3.2 C

3.3 C

4.2 C

7 W/m

0.00 mm

16:00

4.3 C

987.9 hpa

86 %

4.8 km/h aus 117

12.9 km/h aus SW

2.1 C

3.2 C

3.3 C

4.2 C

5 W/m

0.00 mm

16:05

4.3 C

987.9 hpa

86 %

4.8 km/h aus 116

8.0 km/h aus SW

2.1 C

3.2 C

3.3 C

4.2 C

1 W/m

0.00 mm

16:10

4.3 C

987.9 hpa

86 %

4.8 km/h aus 117

14.5 km/h aus SSW

2.1 C

3.2 C

3.3 C

4.2 C

0 W/m

0.00 mm

16:15

4.2 C

988.0 hpa

86 %

6.4 km/h aus 115

14.5 km/h aus SSW

2.1 C

2.6 C

2.7 C

4.1 C

0 W/m

0.00 mm

16:20

4.2 C

988.0 hpa

86 %

8.0 km/h aus 114

16.1 km/h aus SSW

2.1 C

2.1 C

2.2 C

4.1 C

0 W/m

0.00 mm

16:25

4.2 C

988.0 hpa

86 %

3.2 km/h aus 116

9.7 km/h aus SW

2.1 C

3.9 C

4.1 C

4.1 C

0 W/m

0.00 mm

16:30

4.2 C

988.2 hpa

85 %

4.8 km/h aus 117

16.1 km/h aus SSW

1.9 C

3.1 C

3.2 C

4.1 C

0 W/m

0.00 mm

16:35

4.2 C

988.2 hpa

85 %

3.2 km/h aus 117

11.3 km/h aus SSW

1.9 C

3.9 C

4.0 C

4.1 C

0 W/m

0.00 mm

16:40

4.2 C

988.2 hpa

85 %

3.2 km/h aus 117

11.3 km/h aus SSW

1.9 C

3.9 C

4.0 C

4.1 C

0 W/m

0.00 mm

16:45

4.2 C

988.4 hpa

85 %

4.8 km/h aus 117

11.3 km/h aus SW

1.9 C

3.1 C

3.2 C

4.1 C

0 W/m

0.00 mm

16:50

4.1 C

988.4 hpa

85 %

4.8 km/h aus 114

9.7 km/h aus SW

1.8 C

3.1 C

3.2 C

4.0 C

0 W/m

0.00 mm

16:55

4.1 C

988.4 hpa

85 %

1.6 km/h aus 115

8.0 km/h aus SW

1.8 C

4.0 C

4.1 C

4.0 C

0 W/m

0.00 mm

17:00

4.1 C

988.5 hpa

85 %

3.2 km/h aus 117

6.4 km/h aus SW

1.8 C

3.8 C

3.9 C

4.0 C

0 W/m

0.00 mm

17:05

4.1 C

988.5 hpa

85 %

0.0 km/h aus 117

3.2 km/h aus WSW

1.8 C

4.0 C

4.1 C

4.0 C

0 W/m

0.00 mm

17:10

4.1 C

988.5 hpa

84 %

3.2 km/h aus 117

11.3 km/h aus SSW

1.6 C

3.8 C

3.9 C

4.0 C

0 W/m

0.00 mm

17:15

4.1 C

988.6 hpa

84 %

0.0 km/h aus 117

6.4 km/h aus SW

1.6 C

4.0 C

4.1 C

4.0 C

0 W/m

0.00 mm

17:20

4.1 C

988.6 hpa

84 %

0.0 km/h aus 115

6.4 km/h aus SW

1.6 C

4.0 C

4.1 C

4.0 C

0 W/m

0.00 mm

17:25

4.1 C

988.6 hpa

84 %

0.0 km/h aus 114

6.4 km/h aus SW

1.6 C

4.0 C

4.1 C

4.0 C

0 W/m

0.00 mm

17:30

4.1 C

988.9 hpa

84 %

0.0 km/h aus 117

4.8 km/h aus SW

1.6 C

4.0 C

4.1 C

4.0 C

0 W/m

0.00 mm

17:35

4.1 C

988.9 hpa

84 %

0.0 km/h aus 117

3.2 km/h aus SW

1.6 C

4.0 C

4.1 C

4.0 C

0 W/m

0.00 mm

17:40

4.1 C

988.9 hpa

84 %

0.0 km/h aus 117

4.8 km/h aus SW

1.6 C

3.9 C

4.1 C

3.9 C

0 W/m

0.00 mm

17:45

4.1 C

989.0 hpa

84 %

0.0 km/h aus 117

3.2 km/h aus SW

1.6 C

4.0 C

4.1 C

4.0 C

0 W/m

0.00 mm

17:50

4.1 C

989.0 hpa

85 %

0.0 km/h aus 116

4.8 km/h aus SW

1.8 C

3.9 C

4.1 C

3.9 C

0 W/m

0.00 mm

17:55

4.1 C

989.0 hpa

85 %

0.0 km/h aus 115

1.6 km/h aus SW

1.8 C

3.9 C

4.1 C

3.9 C

0 W/m

0.00 mm

18:00

4.1 C

989.1 hpa

85 %

1.6 km/h aus 115

4.8 km/h aus SW

1.8 C

3.9 C

4.1 C

3.9 C

0 W/m

0.00 mm

18:05

4.0 C

989.1 hpa

85 %

0.0 km/h aus 117

0.0 km/h aus ---

1.7 C

3.9 C

4.0 C

3.9 C

0 W/m

0.00 mm

18:10

4.0 C

989.1 hpa

85 %

0.0 km/h aus 115

3.2 km/h aus SW

1.7 C

3.9 C

4.0 C

3.9 C

0 W/m

0.00 mm

18:15

4.0 C

989.2 hpa

85 %

0.0 km/h aus 117

0.0 km/h aus ---

1.7 C

3.9 C

4.0 C

3.9 C

0 W/m

0.00 mm

18:20

4.0 C

989.2 hpa

85 %

0.0 km/h aus 116

0.0 km/h aus ---

1.7 C

3.9 C

4.0 C

3.9 C

0 W/m

0.00 mm

18:25

3.9 C

989.2 hpa

85 %

0.0 km/h aus 115

0.0 km/h aus ---

1.7 C

3.8 C

3.9 C

3.8 C

0 W/m

0.00 mm

18:30

3.9 C

989.4 hpa

85 %

0.0 km/h aus 114

0.0 km/h aus ---

1.7 C

3.8 C

3.9 C

3.8 C

0 W/m

0.00 mm

18:35

3.9 C

989.4 hpa

85 %

0.0 km/h aus 116

0.0 km/h aus ---

1.6 C

3.8 C

3.9 C

3.8 C

0 W/m

0.00 mm

18:40

3.8 C

989.4 hpa

85 %

0.0 km/h aus 117

0.0 km/h aus ---

1.5 C

3.7 C

3.8 C

3.7 C

0 W/m

0.00 mm

18:45

3.8 C

989.5 hpa

85 %

0.0 km/h aus 117

0.0 km/h aus ---

1.5 C

3.7 C

3.8 C

3.7 C

0 W/m

0.00 mm

18:50

3.8 C

989.5 hpa

85 %

0.0 km/h aus 117

0.0 km/h aus ---

1.5 C

3.7 C

3.8 C

3.7 C

0 W/m

0.00 mm

18:55

3.7 C

989.5 hpa

85 %

0.0 km/h aus 117

0.0 km/h aus ---

1.4 C

3.6 C

3.7 C

3.6 C

0 W/m

0.00 mm

19:00

3.7 C

989.6 hpa

85 %

0.0 km/h aus 113

0.0 km/h aus ---

1.4 C

3.6 C

3.7 C

3.6 C

0 W/m

0.00 mm

19:05

3.5 C

989.6 hpa

85 %

0.0 km/h aus 114

0.0 km/h aus ---

1.2 C

3.4 C

3.5 C

3.4 C

0 W/m

0.00 mm

19:10

3.4 C

989.6 hpa

85 %

0.0 km/h aus 117

0.0 km/h aus ---

1.1 C

3.3 C

3.4 C

3.3 C

0 W/m

0.00 mm

19:15

3.3 C

989.7 hpa

85 %

0.0 km/h aus 116

0.0 km/h aus ---

1.1 C

3.2 C

3.3 C

3.2 C

0 W/m

0.00 mm

19:20

3.2 C

989.7 hpa

85 %

0.0 km/h aus 117

0.0 km/h aus ---

0.9 C

3.1 C

3.2 C

3.1 C

0 W/m

0.00 mm

19:25

3.1 C

989.7 hpa

85 %

0.0 km/h aus 117

0.0 km/h aus ---

0.8 C

2.9 C

3.1 C

2.9 C

0 W/m

0.00 mm

19:30

2.9 C

990.0 hpa

85 %

0.0 km/h aus 117

0.0 km/h aus ---

0.7 C

2.8 C

2.9 C

2.8 C

0 W/m

0.00 mm

19:35

2.7 C

990.0 hpa

85 %

3.2 km/h aus 115

9.7 km/h aus SW

0.5 C

2.3 C

2.4 C

2.6 C

0 W/m

0.00 mm

19:40

2.6 C

990.0 hpa

85 %

6.4 km/h aus 115

8.0 km/h aus SW

0.3 C

0.7 C

0.8 C

2.4 C

0 W/m

0.00 mm

19:45

2.4 C

990.0 hpa

85 %

6.4 km/h aus 116

9.7 km/h aus SSW

0.1 C

0.4 C

0.6 C

2.3 C

0 W/m

0.00 mm

19:50

2.3 C

990.0 hpa

86 %

6.4 km/h aus 116

8.0 km/h aus SSW

0.2 C

0.3 C

0.4 C

2.2 C

0 W/m

0.00 mm

19:55

2.1 C

990.0 hpa

86 %

6.4 km/h aus 116

9.7 km/h aus SSW

0.0 C

0.2 C

0.3 C

2.0 C

0 W/m

0.00 mm

20:00

2.1 C

990.1 hpa

86 %

6.4 km/h aus 117

8.0 km/h aus SSW

0.0 C

0.1 C

0.2 C

1.9 C

0 W/m

0.00 mm

20:05

2.0 C

990.1 hpa

87 %

4.8 km/h aus 117

6.4 km/h aus SSW

0.1 C

0.7 C

0.8 C

1.9 C

0 W/m

0.00 mm

20:10

1.9 C

990.1 hpa

87 %

6.4 km/h aus 116

8.0 km/h aus SSW

0.0 C

-0.1 C

0.0 C

1.8 C

0 W/m

0.00 mm

20:15

1.8 C

990.3 hpa

87 %

6.4 km/h aus 115

9.7 km/h aus SSW

-0.1 C

-0.2 C

-0.1 C

1.7 C

0 W/m

0.00 mm

20:20

1.7 C

990.3 hpa

87 %

6.4 km/h aus 113

9.7 km/h aus SSW

-0.3 C

-0.4 C

-0.3 C

1.6 C

0 W/m

0.00 mm

20:25

1.6 C

990.3 hpa

87 %

8.0 km/h aus 116

11.3 km/h aus SSW

-0.3 C

-0.9 C

-0.8 C

1.5 C

0 W/m

0.00 mm

20:30

1.5 C

990.4 hpa

87 %

8.0 km/h aus 115

11.3 km/h aus SSW

-0.4 C

-1.1 C

-1.0 C

1.4 C

0 W/m

0.00 mm

20:35

1.4 C

990.4 hpa

87 %

6.4 km/h aus 117

9.7 km/h aus SSW

-0.5 C

-0.6 C

-0.5 C

1.3 C

0 W/m

0.00 mm

20:40

1.3 C

990.4 hpa

87 %

6.4 km/h aus 116

9.7 km/h aus SSW

-0.6 C

-0.8 C

-0.7 C

1.2 C

0 W/m

0.00 mm

20:45

1.2 C

990.5 hpa

88 %

6.4 km/h aus 118

8.0 km/h aus SSW

-0.5 C

-0.9 C

-0.8 C

1.1 C

0 W/m

0.00 mm

20:50

1.2 C

990.5 hpa

88 %

6.4 km/h aus 117

9.7 km/h aus SSW

-0.6 C

-0.9 C

-0.8 C

1.1 C

0 W/m

0.00 mm

20:55

1.1 C

990.5 hpa

88 %

9.7 km/h aus 113

16.1 km/h aus S

-0.7 C

-2.0 C

-1.9 C

1.0 C

0 W/m

0.00 mm

21:00

1.1 C

990.6 hpa

88 %

9.7 km/h aus 114

14.5 km/h aus S

-0.7 C

-2.0 C

-1.9 C

1.0 C

0 W/m

0.00 mm

21:05

1.1 C

990.6 hpa

88 %

8.0 km/h aus 117

12.9 km/h aus S

-0.7 C

-1.6 C

-1.4 C

1.0 C

0 W/m

0.00 mm

21:10

1.1 C

990.6 hpa

88 %

8.0 km/h aus 117

12.9 km/h aus SSW

-0.7 C

-1.6 C

-1.4 C

1.0 C

0 W/m

0.00 mm

21:15

1.1 C

990.7 hpa

88 %

9.7 km/h aus 117

14.5 km/h aus S

-0.7 C

-2.1 C

-1.9 C

0.9 C

0 W/m

0.00 mm

21:20

1.1 C

990.7 hpa

88 %

8.0 km/h aus 116

11.3 km/h aus S

-0.7 C

-1.6 C

-1.5 C

0.9 C

0 W/m

0.00 mm

21:25

1.1 C

990.7 hpa

88 %

8.0 km/h aus 117

14.5 km/h aus S

-0.7 C

-1.6 C

-1.5 C

0.9 C

0 W/m

0.00 mm

21:30

1.1 C

990.7 hpa

88 %

8.0 km/h aus 116

11.3 km/h aus S

-0.7 C

-1.6 C

-1.5 C

0.9 C

0 W/m

0.00 mm

21:35

1.0 C

990.7 hpa

88 %

11.3 km/h aus 114

16.1 km/h aus S

-0.8 C

-2.5 C

-2.4 C

0.9 C

0 W/m

0.00 mm

21:40

1.0 C

990.7 hpa

89 %

11.3 km/h aus 114

16.1 km/h aus S

-0.6 C

-2.5 C

-2.4 C

0.9 C

0 W/m

0.00 mm

21:45

1.1 C

990.8 hpa

88 %

11.3 km/h aus 117

14.5 km/h aus S

-0.7 C

-2.4 C

-2.3 C

0.9 C

0 W/m

0.00 mm

21:50

1.1 C

990.8 hpa

89 %

11.3 km/h aus 118

17.7 km/h aus S

-0.6 C

-2.4 C

-2.3 C

0.9 C

0 W/m

0.00 mm

21:55

1.1 C

990.8 hpa

88 %

11.3 km/h aus 117

16.1 km/h aus S

-0.7 C

-2.4 C

-2.3 C

0.9 C

0 W/m

0.00 mm

22:00

1.1 C

990.7 hpa

89 %

11.3 km/h aus 117

16.1 km/h aus S

-0.6 C

-2.4 C

-2.3 C

0.9 C

0 W/m

0.00 mm

22:05

1.1 C

990.7 hpa

89 %

11.3 km/h aus 117

16.1 km/h aus S

-0.6 C

-2.4 C

-2.3 C

0.9 C

0 W/m

0.00 mm

22:10

1.1 C

990.7 hpa

89 %

12.9 km/h aus 116

17.7 km/h aus S

-0.6 C

-2.8 C

-2.7 C

0.9 C

0 W/m

0.00 mm

22:15

1.0 C

991.0 hpa

88 %

11.3 km/h aus 115

19.3 km/h aus SSW

-0.8 C

-2.5 C

-2.4 C

0.9 C

0 W/m

0.00 mm

22:20

1.0 C

991.0 hpa

88 %

11.3 km/h aus 113

17.7 km/h aus S

-0.8 C

-2.5 C

-2.4 C

0.9 C

0 W/m

0.00 mm

22:25

1.0 C

991.0 hpa

89 %

9.7 km/h aus 117

14.5 km/h aus S

-0.6 C

-2.1 C

-2.0 C

0.9 C

0 W/m

0.00 mm

22:30

1.0 C

991.1 hpa

89 %

11.3 km/h aus 117

16.1 km/h aus S

-0.6 C

-2.5 C

-2.4 C

0.9 C

0 W/m

0.00 mm

22:35

0.9 C

991.1 hpa

89 %

8.0 km/h aus 117

14.5 km/h aus S

-0.7 C

-1.7 C

-1.6 C

0.8 C

0 W/m

0.00 mm

22:40

0.9 C

991.1 hpa

88 %

8.0 km/h aus 117

14.5 km/h aus S

-0.9 C

-1.8 C

-1.7 C

0.8 C

0 W/m

0.00 mm

22:45

0.8 C

991.1 hpa

88 %

9.7 km/h aus 117

17.7 km/h aus S

-0.9 C

-2.3 C

-2.2 C

0.7 C

0 W/m

0.00 mm

22:50

0.8 C

991.1 hpa

88 %

9.7 km/h aus 116

16.1 km/h aus S

-0.9 C

-2.3 C

-2.2 C

0.7 C

0 W/m

0.00 mm

22:55

0.8 C

991.1 hpa

89 %

8.0 km/h aus 114

14.5 km/h aus S

-0.8 C

-1.9 C

-1.8 C

0.7 C

0 W/m

0.00 mm

23:00

0.8 C

991.1 hpa

88 %

8.0 km/h aus 114

11.3 km/h aus S

-0.9 C

-1.9 C

-1.8 C

0.7 C

0 W/m

0.00 mm

23:05

0.8 C

991.1 hpa

89 %

8.0 km/h aus 117

11.3 km/h aus S

-0.8 C

-1.9 C

-1.8 C

0.7 C

0 W/m

0.00 mm

23:10

0.8 C

991.1 hpa

89 %

6.4 km/h aus 116

11.3 km/h aus S

-0.8 C

-1.4 C

-1.3 C

0.7 C

0 W/m

0.00 mm

23:15

0.8 C

991.2 hpa

89 %

6.4 km/h aus 116

9.7 km/h aus S

-0.8 C

-1.4 C

-1.3 C

0.7 C

0 W/m

0.00 mm

23:20

0.7 C

991.2 hpa

89 %

6.4 km/h aus 117

9.7 km/h aus S

-0.9 C

-1.4 C

-1.3 C

0.6 C

0 W/m

0.00 mm

23:25

0.7 C

991.2 hpa

89 %

1.6 km/h aus 116

8.0 km/h aus S

-0.9 C

0.6 C

0.7 C

0.6 C

0 W/m

0.00 mm

23:30

0.7 C

991.2 hpa

89 %

0.0 km/h aus 117

3.2 km/h aus S

-0.9 C

0.6 C

0.7 C

0.6 C

0 W/m

0.00 mm

23:35

0.7 C

991.2 hpa

89 %

0.0 km/h aus 112

0.0 km/h aus ---

-0.9 C

0.6 C

0.7 C

0.6 C

0 W/m

0.00 mm

23:40

0.6 C

991.2 hpa

88 %

1.6 km/h aus 113

6.4 km/h aus S

-1.1 C

0.5 C

0.6 C

0.5 C

0 W/m

0.00 mm

23:45

0.6 C

991.2 hpa

88 %

3.2 km/h aus 117

6.4 km/h aus S

-1.2 C

-0.1 C

0.1 C

0.4 C

0 W/m

0.00 mm

23:50

0.5 C

991.2 hpa

88 %

1.6 km/h aus 117

6.4 km/h aus S

-1.3 C

0.4 C

0.5 C

0.4 C

0 W/m

0.00 mm

23:55

0.4 C

991.2 hpa

88 %

6.4 km/h aus 117

11.3 km/h aus S

-1.3 C

-1.8 C

-1.7 C

0.3 C

0 W/m

0.00 mm